When you browse on this site, cookies collect data to enhance your experience and personalize the content and advertising you see.
Visit our Privacy Policy to learn more. By continuing to use the site, you agree to this use of cookies and data.

Stündliche Wetter Naftalan

Heute, 23 September, Mittwoch

Zeit Temperatur Niederschläge Wind Luftdruck Luftfeuchtigkeit
00:00 +24°C° 0 mm 2 m/S 767 mmHg 72%
01:00 +24°C° 0 mm 2 m/S 767 mmHg 73%
02:00 +23°C° 0 mm 1 m/S 767 mmHg 74%
03:00 +23°C° 0 mm 2 m/S 767 mmHg 75%
04:00 +22°C° 0 mm 3 m/S 767 mmHg 72%
05:00 +24°C° 0 mm 3 m/S 767 mmHg 69%
06:00 +24°C° 0 mm 3 m/S 767 mmHg 66%
07:00 +25°C° 0 mm 3 m/S 767 mmHg 61%
08:00 +26°C° 0 mm 3 m/S 767 mmHg 56%
09:00 +27°C° 0 mm 4 m/S 767 mmHg 51%
10:00 +27°C° 0 mm 4 m/S 767 mmHg 49%
11:00 +28°C° 0 mm 4 m/S 766 mmHg 46%
12:00 +28°C° 0 mm 4 m/S 766 mmHg 44%
13:00 +28°C° 0 mm 4 m/S 766 mmHg 44%
14:00 +28°C° 0 mm 4 m/S 765 mmHg 44%
15:00 +28°C° 0 mm 4 m/S 764 mmHg 44%
16:00 +27°C° 0 mm 4 m/S 764 mmHg 47%
17:00 +26°C° 0 mm 3 m/S 764 mmHg 50%
18:00 +25°C° 0 mm 3 m/S 764 mmHg 53%
19:00 +25°C° 0 mm 2 m/S 764 mmHg 55%
20:00 +25°C° 0 mm 2 m/S 765 mmHg 57%
21:00 +24°C° 0 mm 1 m/S 765 mmHg 59%
22:00 +24°C° 0 mm 1 m/S 765 mmHg 60%
23:00 +24°C° 0 mm 1 m/S 764 mmHg 61%

Morgen, 24 September, Donnerstag

Zeit Temperatur Niederschläge Wind Luftdruck Luftfeuchtigkeit
00:00 +23°C° 0 mm 1 m/S 764 mmHg 62%
01:00 +23°C° 0 mm 1 m/S 764 mmHg 63%
02:00 +23°C° 0 mm 1 m/S 764 mmHg 63%
03:00 +23°C° 0 mm 2 m/S 764 mmHg 64%
04:00 +23°C° 0 mm 1 m/S 764 mmHg 64%
05:00 +23°C° 0 mm 1 m/S 764 mmHg 64%
06:00 +23°C° 0 mm 1 m/S 764 mmHg 64%
07:00 +24°C° 0 mm 1 m/S 764 mmHg 58%
08:00 +26°C° 0 mm 1 m/S 764 mmHg 52%
09:00 +27°C° 0 mm 1 m/S 764 mmHg 46%
10:00 +28°C° 0 mm 1 m/S 764 mmHg 43%
11:00 +29°C° 0 mm 2 m/S 764 mmHg 40%
12:00 +29°C° 0 mm 3 m/S 763 mmHg 37%
13:00 +29°C° 0 mm 3 m/S 763 mmHg 37%
14:00 +29°C° 0 mm 4 m/S 763 mmHg 38%
15:00 +29°C° 0 mm 4 m/S 762 mmHg 38%
16:00 +28°C° 0 mm 4 m/S 762 mmHg 44%
17:00 +27°C° 0 mm 4 m/S 762 mmHg 50%
18:00 +26°C° 0 mm 4 m/S 762 mmHg 56%
19:00 +25°C° 0 mm 3 m/S 763 mmHg 57%
20:00 +25°C° 0 mm 3 m/S 763 mmHg 59%
21:00 +25°C° 0 mm 3 m/S 763 mmHg 61%
22:00 +24°C° 0 mm 2 m/S 763 mmHg 61%
23:00 +24°C° 0 mm 1 m/S 763 mmHg 61%

übermorgen, 25 September, Freitag

Zeit Temperatur Niederschläge Wind Luftdruck Luftfeuchtigkeit
00:00 +21°C° 0 mm 0 m/S 763 mmHg 62%
01:00 +23°C° 0 mm 1 m/S 762 mmHg 61%
02:00 +23°C° 0 mm 1 m/S 762 mmHg 61%
03:00 +23°C° 0 mm 2 m/S 762 mmHg 60%
04:00 +23°C° 0 mm 2 m/S 762 mmHg 61%
05:00 +22°C° 0 mm 1 m/S 762 mmHg 62%
06:00 +22°C° 0 mm 1 m/S 763 mmHg 63%
07:00 +24°C° 0 mm 1 m/S 762 mmHg 54%
08:00 +26°C° 0 mm 1 m/S 762 mmHg 45%
09:00 +28°C° 0 mm 1 m/S 762 mmHg 36%
10:00 +28°C° 0 mm 1 m/S 762 mmHg 33%
11:00 +29°C° 0 mm 2 m/S 762 mmHg 31%
12:00 +30°C° 0 mm 3 m/S 761 mmHg 29%
13:00 +30°C° 0 mm 3 m/S 761 mmHg 30%
14:00 +30°C° 0 mm 4 m/S 761 mmHg 32%
15:00 +29°C° 0 mm 4 m/S 760 mmHg 34%
16:00 +28°C° 0 mm 4 m/S 760 mmHg 40%
17:00 +27°C° 0 mm 3 m/S 760 mmHg 47%
18:00 +26°C° 0 mm 3 m/S 760 mmHg 54%
19:00 +25°C° 0 mm 3 m/S 760 mmHg 55%
20:00 +25°C° 0 mm 2 m/S 761 mmHg 57%
21:00 +24°C° 0 mm 2 m/S 761 mmHg 58%
22:00 +24°C° 0 mm 2 m/S 760 mmHg 57%
23:00 +24°C° 0 mm 2 m/S 760 mmHg 56%

26 September, Samstag

Zeit Temperatur Niederschläge Wind Luftdruck Luftfeuchtigkeit
00:00 +24°C° 0 mm 2 m/S 760 mmHg 55%
01:00 +24°C° 0 mm 2 m/S 759 mmHg 54%
02:00 +22°C° 0 mm 3 m/S 759 mmHg 54%
03:00 +22°C° 0 mm 3 m/S 759 mmHg 53%
04:00 +22°C° 0 mm 3 m/S 759 mmHg 55%
05:00 +22°C° 0 mm 3 m/S 760 mmHg 56%
06:00 +21°C° 0 mm 3 m/S 760 mmHg 58%
07:00 +24°C° 0 mm 3 m/S 760 mmHg 51%
08:00 +26°C° 0 mm 4 m/S 760 mmHg 43%
09:00 +27°C° 0 mm 4 m/S 760 mmHg 36%
10:00 +28°C° 0 mm 4 m/S 760 mmHg 34%
11:00 +29°C° 0 mm 4 m/S 760 mmHg 32%
12:00 +30°C° 0 mm 4 m/S 759 mmHg 30%
13:00 +30°C° 0 mm 4 m/S 759 mmHg 35%
14:00 +29°C° 0 mm 5 m/S 759 mmHg 40%
15:00 +29°C° 0 mm 5 m/S 759 mmHg 45%
16:00 +27°C° 0 mm 5 m/S 759 mmHg 50%
17:00 +26°C° 0 mm 5 m/S 759 mmHg 55%
18:00 +25°C° 0 mm 4 m/S 759 mmHg 60%
19:00 +25°C° 0 mm 4 m/S 760 mmHg 61%
20:00 +24°C° 0 mm 3 m/S 760 mmHg 61%
21:00 +24°C° 0 mm 2 m/S 760 mmHg 62%
22:00 +24°C° 0 mm 2 m/S 760 mmHg 61%
23:00 +24°C° 0 mm 2 m/S 760 mmHg 61%

27 September, Sonntag

Zeit Temperatur Niederschläge Wind Luftdruck Luftfeuchtigkeit
00:00 +23°C° 0 mm 2 m/S 760 mmHg 60%
01:00 +23°C° 0 mm 2 m/S 760 mmHg 61%
02:00 +23°C° 0 mm 2 m/S 760 mmHg 63%
03:00 +21°C° 0 mm 3 m/S 760 mmHg 65%
04:00 +21°C° 0 mm 3 m/S 761 mmHg 65%
05:00 +21°C° 0 mm 3 m/S 761 mmHg 65%
06:00 +21°C° 0 mm 3 m/S 761 mmHg 66%
07:00 +24°C° 0 mm 3 m/S 762 mmHg 59%
08:00 +25°C° 0 mm 3 m/S 762 mmHg 52%
09:00 +27°C° 0 mm 3 m/S 762 mmHg 45%
10:00 +28°C° 0 mm 4 m/S 762 mmHg 43%
11:00 +28°C° 0 mm 5 m/S 762 mmHg 42%
12:00 +28°C° 0 mm 6 m/S 762 mmHg 40%
13:00 +28°C° 0 mm 6 m/S 762 mmHg 42%
14:00 +27°C° 0 mm 6 m/S 762 mmHg 45%
15:00 +27°C° 0 mm 6 m/S 762 mmHg 47%
16:00 +26°C° 0 mm 5 m/S 762 mmHg 50%
17:00 +25°C° 0 mm 4 m/S 763 mmHg 52%
18:00 +22°C° 0 mm 3 m/S 763 mmHg 55%
19:00 +22°C° 0 mm 3 m/S 764 mmHg 54%
20:00 +22°C° 0 mm 3 m/S 764 mmHg 54%
21:00 +22°C° 0 mm 3 m/S 765 mmHg 54%
22:00 +21°C° 0 mm 3 m/S 765 mmHg 54%
23:00 +21°C° 0 mm 3 m/S 765 mmHg 54%

28 September, Montag

Zeit Temperatur Niederschläge Wind Luftdruck Luftfeuchtigkeit
00:00 +21°C° 0 mm 3 m/S 765 mmHg 54%
01:00 +21°C° 0 mm 3 m/S 765 mmHg 55%
02:00 +21°C° 0 mm 4 m/S 765 mmHg 56%
03:00 +20°C° 0 mm 4 m/S 765 mmHg 58%
04:00 +20°C° 0 mm 4 m/S 766 mmHg 58%
05:00 +20°C° 0 mm 4 m/S 766 mmHg 58%
06:00 +20°C° 0 mm 4 m/S 766 mmHg 58%
07:00 +22°C° 0 mm 4 m/S 766 mmHg 53%
08:00 +25°C° 0 mm 4 m/S 767 mmHg 47%
09:00 +26°C° 0 mm 4 m/S 767 mmHg 41%
10:00 +27°C° 0 mm 4 m/S 767 mmHg 41%
11:00 +27°C° 0 mm 5 m/S 766 mmHg 40%
12:00 +27°C° 0 mm 5 m/S 766 mmHg 40%
13:00 +27°C° 0 mm 5 m/S 766 mmHg 42%
14:00 +27°C° 0 mm 5 m/S 766 mmHg 45%
15:00 +27°C° 0 mm 6 m/S 765 mmHg 47%
16:00 +26°C° 0 mm 5 m/S 765 mmHg 52%
17:00 +25°C° 0 mm 5 m/S 765 mmHg 57%
18:00 +23°C° 0 mm 5 m/S 765 mmHg 62%
19:00 +23°C° 0 mm 5 m/S 765 mmHg 64%
20:00 +23°C° 0 mm 5 m/S 765 mmHg 67%
21:00 +22°C° 0 mm 5 m/S 765 mmHg 69%
22:00 +22°C° 0 mm 5 m/S 765 mmHg 70%
23:00 +22°C° 0 mm 5 m/S 765 mmHg 71%
Mehr zeigen